Tracking 29932 objects as of 3-Dec-2024
HD Live streaming from Space Station
objects crossing your sky now

ONEWEB-0061

Track ONEWEB-0061 now!
10-day predictions
ONEWEB-0061 is classified as:


NORAD ID: 45428
Int'l Code: 2020-020E
Perigee: 1,223.7 km
Apogee: 1,225.9 km
Inclination: 87.9 °
Period: 109.8 minutes
Semi major axis: 7595 km
RCS: Unknown
Launch date: March 21, 2020
Source: United Kingdom (UK)
Launch site: TYURATAM MISSILE AND SPACE COMPLEX (TTMTR)
Your satellite tracking list
Your tracking list is empty




NASA's NSSDC Master Catalog

Two Line Element Set (TLE):
1 45428U 20020E   24337.70065907 -.00000498  00000-0 -14400-2 0  9994
2 45428  87.8874 132.9239 0001456  92.6882 267.4413 13.11416685229036
Source of the keplerian elements: AFSPC